Location: Delia
(51.6321°N, 112.3740°W)
Time: 12:24:26
(UTC+00:00)

ISS - Visible Passes

Search period start: 02 December 2021 00:00
Search period end: 12 December 2021 00:00
Orbit: 417 x 423 km, 51.6° (Epoch: 02 December)

Date Brightness Start Highest point End Pass type
(mag) Time Alt. Az. Time Alt. Az. Time Alt. Az.
02 Dec -3.6 01:28:26 10° W 01:31:50 69° SSW 01:32:21 56° SE visible
03 Dec -3.7 00:41:14 10° W 00:44:39 81° S 00:47:13 17° ESE visible
03 Dec -1.5 02:18:12 10° W 02:20:13 25° WSW 02:20:13 25° WSW visible
04 Dec -2.7 01:30:54 10° W 01:34:09 41° SSW 01:35:10 31° SSE visible
05 Dec -3.1 00:43:40 10° W 00:47:00 54° SSW 00:50:16 10° ESE visible
05 Dec -1.0 02:21:11 10° WSW 02:23:17 16° SW 02:23:17 16° SW visible
05 Dec -3.4 23:56:26 10° W 23:59:50 68° SSW 00:03:12 10° ESE visible
06 Dec -1.4 01:33:35 10° W 01:36:17 22° SW 01:38:35 12° SSE visible
07 Dec -1.8 00:46:10 10° W 00:49:12 30° SSW 00:52:13 10° SSE visible
07 Dec -2.3 23:58:51 10° W 00:02:05 41° SSW 00:05:17 10° SE visible
08 Dec -0.4 01:37:32 10° SW 01:38:12 10° SW 01:38:53 10° SSW visible
09 Dec -0.7 00:49:06 10° WSW 00:51:12 15° SW 00:53:17 10° S visible
10 Dec -0.9 00:01:28 10° W 00:04:08 22° SW 00:06:48 10° SSE visible
